Hoquiam, WA
on Friday, January 4, 2013

Friday
Previous Day Next Day
Daily Summary
 ActualAverageRecord
Temperature
Mean Temperature °F 42°F  
Max Temperature 48°F 46°F 56°F (1984)
Min Temperature 41°F 38°F 19°F (1959)
Degree Days
Heating Degree Days 20 23  
Month to date heating degree days 92  
Cooling Degree Days 0 0  
Month to date cooling degree days 0  
Year to date cooling degree days 0  
Moisture
Dew Point 43°F   
Average Humidity 94    
Maximum Humidity 100    
Minimum Humidity 80    
Precipitation
Precipitation 0.24 in 0.35 in 1.83 in (1976)
Month to date precipitation 1.37  
Year to date precipitation 1.37  
Wind
Wind Speed 6 mph   
Max Wind Speed 12 mph   
Max Gust Speed mph   
Visibility 7 miles   
Events Rain   

Key: T is trace of precipitation, MM is missing value
Source: NWS Daily Summary
Time(PST)TemperatureDew PointHumidity Pressure Visibility Wind DirectionWind SpeedGust SpeedPrecipitationEvents Conditions
12:02 AM 41.0°F 39.2°F 93% 30.15 in 1.8 miles NE 5.8 mph - 0.01 in Rain Light Rain
12:12 AM 41.0°F 41.0°F 100% 30.15 in 2.0 miles ENE 3.5 mph - 0.01 in Rain Light Rain
12:22 AM 41.0°F 41.0°F 100% 30.15 in 1.5 miles NE 4.6 mph - 0.02 in Rain Light Rain
12:42 AM 42.8°F 41.0°F 93% 30.15 in 2.0 miles ENE 3.5 mph - 0.04 in Rain Light Rain
12:50 AM 42.8°F 41.0°F 93% 30.16 in 2.0 miles NE 5.8 mph - 0.05 in Rain Light Rain
12:53 AM 42.1°F 41.0°F 96% 30.17 in 2.0 miles NE 5.8 mph - 0.05 in Rain Light Rain
1:14 AM 42.8°F 42.8°F 100% 30.17 in 3.0 miles NE 3.5 mph - 0.01 in Rain Light Rain
1:53 AM 43.0°F 42.1°F 97% 30.19 in 2.0 miles NE 5.8 mph - 0.02 in   Overcast
2:22 AM 42.8°F 42.8°F 100% 30.19 in 1.5 miles NE 6.9 mph - 0.00 in Rain Light Rain
2:41 AM 42.8°F 42.8°F 100% 30.20 in 1.2 miles NE 5.8 mph - 0.02 in Rain Light Rain
2:53 AM 42.1°F 41.0°F 96% 30.21 in 1.5 miles ENE 5.8 mph - 0.02 in Rain Light Rain
3:23 AM 42.8°F 42.8°F 100% 30.21 in 2.0 miles ENE 6.9 mph - 0.03 in Rain Light Rain
3:30 AM 42.8°F 42.8°F 100% 30.21 in 1.8 miles NE 6.9 mph - 0.03 in Rain Light Rain
3:53 AM 42.1°F 41.0°F 96% 30.22 in 1.8 miles ENE 6.9 mph - 0.06 in Rain Light Rain
4:53 AM 43.0°F 42.1°F 97% 30.22 in 1.8 miles ENE 5.8 mph - 0.05 in Rain Light Rain
5:13 AM 42.8°F 42.8°F 100% 30.22 in 1.5 miles East 5.8 mph - 0.02 in Rain Light Rain
5:25 AM 44.6°F 42.8°F 93% 30.23 in 2.5 miles ESE 5.8 mph - 0.03 in Rain Light Rain
5:49 AM 44.6°F 44.6°F 100% 30.23 in 5.0 miles South 6.9 mph - 0.04 in   Overcast
5:53 AM 45.0°F 45.0°F 100% 30.25 in 8.0 miles South 6.9 mph - 0.04 in   Overcast
6:36 AM 44.6°F 44.6°F 100% 30.25 in 4.0 miles SSW 11.5 mph - N/A   Overcast
6:53 AM 45.0°F 44.1°F 97% 30.26 in 10.0 miles SSW 9.2 mph - N/A   Overcast
7:10 AM 44.6°F 44.6°F 100% 30.26 in 10.0 miles SSW 10.4 mph - N/A   Overcast
7:28 AM 44.6°F 44.6°F 100% 30.26 in 5.0 miles SSW 5.8 mph - N/A   Overcast
7:39 AM 44.6°F 44.6°F 100% 30.27 in 10.0 miles SSW 5.8 mph - N/A   Overcast
7:53 AM 45.0°F 44.1°F 97% 30.29 in 10.0 miles South 8.1 mph - N/A   Overcast
8:02 AM 44.6°F 44.6°F 100% 30.28 in 10.0 miles South 9.2 mph - N/A   Overcast
8:18 AM 44.6°F 44.6°F 100% 30.29 in 10.0 miles South 6.9 mph - N/A   Overcast
8:53 AM 44.1°F 42.1°F 93% 30.30 in 10.0 miles SSE 5.8 mph - N/A   Overcast
9:08 AM 44.6°F 42.8°F 93% 30.29 in 10.0 miles Calm Calm - N/A   Overcast
9:53 AM 45.0°F 44.1°F 97% 30.32 in 10.0 miles ENE 3.5 mph - N/A   Overcast
10:37 AM 46.4°F 44.6°F 93% 30.30 in 10.0 miles ENE 3.5 mph - N/A   Mostly Cloudy
10:45 AM 46.4°F 44.6°F 93% 30.30 in 10.0 miles ENE 3.5 mph - N/A   Scattered Clouds
10:53 AM 46.9°F 45.0°F 93% 30.31 in 10.0 miles ENE 3.5 mph - N/A   Partly Cloudy
11:21 AM 48.2°F 44.6°F 87% 30.29 in 10.0 miles East 6.9 mph - N/A   Partly Cloudy
11:53 AM 48.0°F 45.0°F 89% 30.29 in 10.0 miles East 6.9 mph - N/A   Clear
12:42 PM 48.2°F 44.6°F 87% 30.26 in 10.0 miles East 5.8 mph - N/A   Mostly Cloudy
12:53 PM 48.0°F 44.1°F 86% 30.27 in 10.0 miles East 5.8 mph - N/A   Mostly Cloudy
1:53 PM 48.9°F 44.1°F 83% 30.25 in 10.0 miles ENE 6.9 mph - N/A   Overcast
2:21 PM 48.2°F 44.6°F 87% 30.23 in 10.0 miles ENE 5.8 mph - N/A   Mostly Cloudy
2:42 PM 48.2°F 42.8°F 82% 30.23 in 10.0 miles NE 4.6 mph - N/A   Overcast
2:53 PM 48.9°F 43.0°F 80% 30.23 in 10.0 miles NE 5.8 mph - N/A   Overcast
3:53 PM 48.0°F 44.1°F 86% 30.22 in 10.0 miles NE 6.9 mph - N/A   Overcast
4:26 PM 46.4°F 44.6°F 93% 30.21 in 10.0 miles NE 5.8 mph - N/A   Scattered Clouds
4:53 PM 46.0°F 43.0°F 89% 30.22 in 10.0 miles NE 6.9 mph - N/A   Mostly Cloudy
5:53 PM 46.0°F 43.0°F 89% 30.19 in 10.0 miles ENE 6.9 mph - N/A   Overcast
6:53 PM 46.0°F 43.0°F 89% 30.19 in 10.0 miles ENE 8.1 mph - N/A   Overcast
7:53 PM 45.0°F 42.1°F 90% 30.17 in 10.0 miles ENE 6.9 mph - N/A   Overcast
8:53 PM 45.0°F 42.1°F 90% 30.16 in 10.0 miles ENE 8.1 mph - N/A   Overcast
9:53 PM 45.0°F 42.1°F 90% 30.16 in 10.0 miles NE 6.9 mph - N/A   Overcast
10:53 PM 45.0°F 42.1°F 90% 30.15 in 10.0 miles ENE 9.2 mph - N/A   Overcast
11:53 PM 44.1°F 42.1°F 93% 30.16 in 10.0 miles East 9.2 mph - N/A   Overcast
Moon Phase
Jan. 04 Jan. 04 Jan. 11 Jan. 18 Jan. 26
Sunrise:08:01 AM (PST) Moon Rise:No Moon Rise/
Sunset:04:40 PM (PST) Moon Set:11:16 AM (PST)1/4

Copyright © 2014 The Weather Underground, Inc.